Change the Weather History Date:

Monday, April 7, 2014

  Actual Average Record
Temperature  
Mean Temperature 55 °F -  
Max Temperature 65 °F 67 °F 82 °F (1959)
Min Temperature 45 °F 41 °F 21 °F (1982)
Degree Days  
Heating Degree Days 10    
Growing Degree Days 5 (Base 50)    
Moisture  
Dew Point 51 °F    
Average Humidity 88    
Maximum Humidity 100    
Minimum Humidity 67    
Precipitation  
Precipitation 0.19 in - - ()
Sea Level Pressure  
Sea Level Pressure 29.64 in    
Wind  
Wind Speed 9 mph (SSW)    
Max Wind Speed 26 mph    
Max Gust Speed 38 mph    
Visibility 9 miles    
Events Rain    
Averages and records for this station are not official NWS values.
T = Trace of Precipitation, MM = Missing Value Source: NWS Daily Summary

Daily Weather History Graph

Daily Weather History Graph

Search for Another Location

Airport or City:

Trip Planner

Search our weather history database for the weather conditions in past years. The results will help you decide how hot, cold, wet, or windy it might be!

Date:

Astronomy

Apr. 07, 2014 Rise Set
Actual Time 6:20 AM CDT 7:11 PM CDT
Civil Twilight 5:54 AM CDT 7:38 PM CDT
Nautical Twilight 5:23 AM CDT 8:09 PM CDT
Astronomical Twilight 4:51 AM CDT 8:41 PM CDT
Moon 12:19 PM CDT (4/7) 1:44 AM CDT (4/7)
Length of Visible Light 13h 43m
Length of Day
12h 50m
First Quarter, 53% of the Moon is Illuminated
Apr 7
First Quarter
Apr 15
Full
Apr 22
Last Quarter
Apr 29
New
May 6
First Quarter

Hourly Weather History & Observations

Time (CDT) Temp. Windchill Dew Point Humidity Pressure Visibility Wind Dir Wind Speed Gust Speed Precip Events Conditions
12:15 AM 53.1 °F - 46.8 °F 79% 29.86 in 10.0 mi SE 5.8 mph - N/A   Drizzle
12:35 AM 52.2 °F - 48.6 °F 88% 29.87 in 10.0 mi SSE 5.8 mph - N/A Rain Light Rain
12:55 AM 52.2 °F - 51.8 °F 99% 29.84 in 10.0 mi Calm Calm - N/A Rain Light Rain
1:15 AM 52.2 °F - 52.2 °F 100% 29.81 in 5.0 mi ENE 3.5 mph - 0.01 in Rain Heavy Rain
1:35 AM 52.0 °F - 52.0 °F 100% 29.81 in 7.0 mi Calm Calm - 0.01 in Rain Light Rain
1:55 AM 51.8 °F - 51.8 °F 100% 29.78 in 7.0 mi NE 3.5 mph - 0.01 in Rain Light Rain
2:15 AM 51.8 °F - 51.8 °F 100% 29.76 in 10.0 mi NE 3.5 mph - N/A   Overcast
2:35 AM 52.0 °F - 52.0 °F 100% 29.75 in 10.0 mi ENE 3.5 mph - N/A   Overcast
2:55 AM 52.0 °F - 52.0 °F 100% 29.75 in 10.0 mi Calm Calm - N/A   Overcast
3:15 AM 52.2 °F - 52.2 °F 100% 29.75 in 10.0 mi ENE 3.5 mph - N/A   Overcast
3:35 AM 52.2 °F - 52.2 °F 100% 29.76 in 7.0 mi East 3.5 mph - N/A Rain Heavy Rain
3:55 AM 52.2 °F - 52.2 °F 100% 29.74 in 4.0 mi East 5.8 mph - 0.03 in Rain Rain
4:15 AM 52.0 °F - 52.0 °F 100% 29.69 in 3.0 mi East 8.1 mph - 0.02 in   Heavy Drizzle
4:35 AM 52.0 °F - 52.0 °F 100% 29.73 in 5.0 mi East 5.8 mph - 0.02 in   Overcast
4:55 AM 52.0 °F - 52.0 °F 100% 29.71 in 7.0 mi East 6.9 mph - 0.03 in   Overcast
5:15 AM 52.2 °F - 52.2 °F 100% 29.69 in 7.0 mi East 6.9 mph - N/A   Overcast
5:35 AM 52.2 °F - 52.2 °F 100% 29.66 in 7.0 mi East 8.1 mph - N/A   Overcast
5:55 AM 52.5 °F - 52.5 °F 100% 29.66 in 10.0 mi East 8.1 mph - N/A   Overcast
6:15 AM 52.7 °F - 52.7 °F 100% 29.64 in 10.0 mi East 9.2 mph - N/A   Overcast
6:30 AM 52.7 °F - 52.7 °F 100% 29.64 in 10.0 mi East 8.1 mph - N/A   Overcast
6:55 AM 53.4 °F - 53.1 °F 99% 29.65 in 10.0 mi ESE 8.1 mph - N/A   Overcast
7:15 AM 54.1 °F - 52.0 °F 92% 29.66 in 10.0 mi SE 6.9 mph - N/A   Overcast
7:35 AM 54.7 °F - 51.8 °F 90% 29.66 in 10.0 mi SE 5.8 mph - N/A   Overcast
7:55 AM 55.0 °F - 52.0 °F 89% 29.64 in 10.0 mi SE 6.9 mph - N/A   Overcast
8:15 AM 55.4 °F - 52.2 °F 89% 29.62 in 10.0 mi ESE 6.9 mph - N/A   Overcast
8:35 AM 56.1 °F - 53.1 °F 89% 29.60 in 10.0 mi SE 6.9 mph - N/A   Overcast
8:55 AM 56.5 °F - 52.0 °F 85% 29.54 in 10.0 mi ESE 12.7 mph - N/A   Overcast
9:15 AM 56.1 °F - 51.8 °F 85% 29.53 in 10.0 mi SE 11.5 mph - N/A   Overcast
9:55 AM 57.4 °F - 51.8 °F 82% 29.53 in 10.0 mi SE 3.5 mph - N/A   Overcast
10:15 AM 58.1 °F - 52.0 °F 80% 29.53 in 10.0 mi SSE 8.1 mph - N/A   Overcast
10:35 AM 59.2 °F - 52.3 °F 78% 29.53 in 10.0 mi SSE 10.4 mph - N/A   Overcast
10:55 AM 59.9 °F - 52.9 °F 78% 29.51 in 10.0 mi South 10.4 mph 17.3 mph N/A   Overcast
11:15 AM 60.4 °F - 53.2 °F 77% 29.51 in 10.0 mi South 11.5 mph 18.4 mph N/A   Overcast
11:35 AM 61.5 °F - 54.0 °F 76% 29.51 in 10.0 mi South 10.4 mph 18.4 mph N/A   Overcast
11:55 AM 61.9 °F - 54.3 °F 76% 29.50 in 10.0 mi SSW 13.8 mph 18.4 mph N/A   Overcast
12:15 PM 62.6 °F - 55.4 °F 77% 29.50 in 10.0 mi SSW 13.8 mph 19.6 mph N/A   Overcast
12:35 PM 63.1 °F - 55.9 °F 77% 29.49 in 10.0 mi SSW 15.0 mph 24.2 mph N/A   Overcast
12:55 PM 63.5 °F - 56.5 °F 78% 29.49 in 10.0 mi SSW 13.8 mph 21.9 mph N/A   Overcast
1:15 PM 63.9 °F - 56.7 °F 77% 29.49 in 10.0 mi SSW 18.4 mph 24.2 mph N/A   Overcast
1:35 PM 64.0 °F - 57.2 °F 78% 29.48 in 10.0 mi SSW 11.5 mph 18.4 mph N/A   Overcast
1:55 PM 65.3 °F - 57.7 °F 76% 29.47 in 10.0 mi South 13.8 mph 25.3 mph N/A   Overcast
2:15 PM 65.5 °F - 57.4 °F 75% 29.46 in 10.0 mi South 15.0 mph 23.0 mph N/A   Overcast
2:35 PM 64.0 °F - 58.3 °F 82% 29.46 in 2.0 mi SW 12.7 mph 23.0 mph 0.11 in Rain Heavy Rain
2:55 PM 63.7 °F - 59.9 °F 87% 29.46 in 10.0 mi SW 12.7 mph 26.5 mph 0.12 in   Overcast
3:15 PM 65.1 °F - 58.3 °F 78% 29.45 in 10.0 mi WSW 19.6 mph 25.3 mph N/A   Overcast
3:35 PM 64.9 °F - 56.5 °F 74% 29.46 in 10.0 mi WSW 18.4 mph 31.1 mph N/A   Overcast
3:55 PM 63.1 °F - 54.9 °F 74% 29.47 in 10.0 mi WSW 19.6 mph 27.6 mph N/A   Overcast
4:15 PM 61.3 °F - 52.5 °F 73% 29.49 in 10.0 mi WSW 26.5 mph 38.0 mph N/A   Overcast
4:55 PM 59.0 °F - 48.0 °F 67% 29.51 in 10.0 mi WSW 21.9 mph 34.5 mph N/A   Overcast
5:15 PM 57.9 °F - 47.8 °F 69% 29.53 in 10.0 mi WSW 24.2 mph 29.9 mph N/A   Overcast
5:35 PM 56.1 °F - 47.7 °F 73% 29.55 in 10.0 mi WSW 19.6 mph 33.4 mph N/A   Overcast
5:55 PM 55.0 °F - 47.1 °F 75% 29.56 in 10.0 mi WSW 24.2 mph 34.5 mph N/A   Overcast
6:15 PM 53.8 °F - 47.1 °F 78% 29.58 in 5.0 mi WSW 21.9 mph 31.1 mph N/A Rain Rain
6:35 PM 51.6 °F - 46.9 °F 84% 29.61 in 4.0 mi West 17.3 mph 32.2 mph N/A Rain Light Rain
6:55 PM 48.4 °F - 47.5 °F 97% 29.63 in 3.0 mi West 13.8 mph 20.7 mph N/A   Drizzle
7:15 PM 47.5 °F - 47.5 °F 100% 29.65 in 5.0 mi West 16.1 mph 24.2 mph N/A   Overcast
7:35 PM 47.3 °F - 46.9 °F 99% 29.66 in 7.0 mi West 12.7 mph 21.9 mph N/A   Overcast
7:55 PM 46.9 °F - 46.6 °F 99% 29.68 in 4.0 mi West 16.1 mph 25.3 mph N/A Rain Rain
8:15 PM 45.9 °F 39.7 °F 45.9 °F 100% 29.70 in 7.0 mi West 13.8 mph 20.7 mph N/A   Overcast
8:35 PM 45.7 °F 39.5 °F 45.0 °F 97% 29.71 in 10.0 mi WSW 13.8 mph 17.3 mph N/A   Overcast
8:55 PM 45.9 °F 40.0 °F 43.9 °F 93% 29.73 in 10.0 mi West 12.7 mph - N/A   Overcast
9:15 PM 45.7 °F 40.2 °F 43.5 °F 92% 29.74 in 10.0 mi West 11.5 mph 18.4 mph N/A   Overcast
9:35 PM 45.7 °F 40.6 °F 44.1 °F 94% 29.75 in 10.0 mi West 10.4 mph 18.4 mph N/A   Overcast
9:55 PM 45.5 °F 39.9 °F 45.0 °F 98% 29.75 in 10.0 mi West 11.5 mph 17.3 mph N/A   Overcast
10:15 PM 45.1 °F 38.8 °F 45.1 °F 100% 29.75 in 10.0 mi West 13.8 mph 18.4 mph N/A   Overcast
10:35 PM 45.1 °F 40.3 °F 44.6 °F 98% 29.76 in 10.0 mi West 9.2 mph - N/A   Overcast
10:55 PM 45.1 °F 39.9 °F 42.3 °F 90% 29.77 in 10.0 mi West 10.4 mph - N/A   Overcast
11:15 PM 45.5 °F 40.3 °F 41.2 °F 85% 29.77 in 10.0 mi West 10.4 mph 16.1 mph N/A   Overcast
11:35 PM 45.1 °F 39.9 °F 41.0 °F 85% 29.78 in 10.0 mi West 10.4 mph 16.1 mph N/A   Overcast
11:55 PM 45.0 °F 40.6 °F 40.6 °F 85% 29.78 in 10.0 mi West 8.1 mph 16.1 mph N/A   Overcast